Погода Бакалы

Поиск расширенной информации на нашем сайте:

Полезная информация:

Новости сайта



02.01.2020
Опубликован Долгосрочный прогноз погоды по городам России и ближнего зарубежья на январь 2020 года.
Карты: Прогноз на январь и февраль 2020 года, Сравнение прогнозируемой аномалии приземной температуры воздуха на январь 2020 года по разным моделям.




Погода Бакалы - сегодня

Время (UTC), дата Ветер
(°,м/с) 
Видим.   Явления Облачность Т
(°С)
Тd
(°С)
f(%) Тe
(°С)
Pmin
(гПа)
dP
(гПа)
Po
(мм)
O2
(г/м3)
Тmin Tmax R s Состояние
почвы
18 23.02.21 360 (С) 10 км  позёмок  ясно 
-24.8 -30.2 61 -35  1028.5  0.1  758  338           
21 23.02.21 350 (С) 10 км  позёмок  ясно 
-25.6 -30.5 63 -35  1028.1  -0.4  758  339           
00 24.02.21 350 (С) 10 км    ясно 
-26.3 -31 65 -35  1028.3  0.1  758  340           
03 24.02.21 350 (С) 7-10{10}  10 км    ясно 
-26.6 -31.3 64 -36  1028.8  0.5  758  341  -26.7      44  равномерный
сухой снег
100% 
09 24.02.21 350 (С) 6{12}  20000 м    ясно 
-22.1 -28.3 57 -30  1028.7  -0.2  759  334           
15 24.02.21 350 (С) 10 км    ясно 
-20.2 -26.7 56 -25  1029.9  1.1  760  332           
18 24.02.21 340 (С) 10 км    ясно 
-21.6 -28 56 -27  1031.1  1.1  760  335           
21 24.02.21 тихо ()   10 км    ясно 
-24.9 -29.8 64 -25  1031.7  0.3  761  339           
00 25.02.21 230 (ЮЗ) 10 км    ясно 
-28.2 -31.3 75 -29  1032.5  0.6  761  344           
06 25.02.21 190 (Ю) 20000 м    ясно 
-26.6 -30.8 68 -27  1032.8  761  342  -32.7         
09 25.02.21 220 (ЮЗ) 20000 м    3/0 верхняя 
[Ci fib]
-18.8 -26.1 53 -21  1030.5  -1.6  760  331           
12 25.02.21 200 (Ю) 20000 м    4/0 верхняя 
[Ci fib]
-18.8 -26.1 53 -24  1030.5  -1.7  759  330           
18 25.02.21 170 (Ю) 10 км    9/0 верхняя 
[Cs]
-19.8 -26.3 56 -24  1025.6  -1.5  756  330           
21 25.02.21 170 (Ю) 10 км    ясно 
-20.9 -25.3 68 -25  1024.7  -1  756  331           
00 26.02.21 150 (ЮВ) 10 км    ясно 
-22.1 -25.6 73 -25  1023.8  -0.9  755  333           
06 26.02.21 150 (ЮВ) 20000 м    8/0 верхняя 
[Ci fib]
-19.7 -24.5 66 -24  1022.6  -0.4  754  329  -26.1         
09 26.02.21 170 (Ю) 20000 м    9/0 верхняя 
[Cs]
-15.6 -21.7 59 -21  1021.8  -0.5  754  324           
12 26.02.21 150 (ЮВ) 20000 м    8/0 верхняя 
[Ci fib]
-14.4 -21.6 54 -20  1020.5  -1.3  753  322           
18 26.02.21 150 (ЮВ) 10 км    ясно 
-18.4 -22.5 70 -24  1015.8  -3.5  749  325           
21 26.02.21 140 (ЮВ) 10 км    9/0 средняя, верхняя 
[Ac As|Cs]
-16.6 -20.7 71 -22  1011.5  -4.1  746  322           
00 27.02.21 140 (ЮВ) 4000 м  слаб. снег  10/0 средняя 
[As op]
-15.8 -18.6 79 -21  1007.8  -3.6  743  319           
03 27.02.21 140 (ЮВ) 4000 м  слаб. снег  10/0 средняя 
[As op]
-15.5 -18.7 76 -20  1003.9  -3.8  741  318  -19    45  равномерный
сухой снег
100% 
06 27.02.21 120 (ЮВ) 10 км  слаб. снег  10/0 средняя 
[As op]
-13.9 -16.9 78 -17  1002.4  -1.4  740  315  -19         
09 27.02.21 120 (ЮВ) 4000 м  слаб. снег  10/0 средняя 
[As op]
-11 -13.5 82 -14  1000.8  -1.3  739  311           
12 27.02.21 110 (В) 4000 м  слаб. снег  10/0 средняя 
[Ac As]
-8.9 -11.9 79 -11  1000.3  -0.4  738  309           
Время (UTC), дата Ветер
(°,м/с) 
Видим.   Явления Облачность Т
(°С)
Тd
(°С)
f(%) Тe
(°С)
Pmin
(гПа)
dP
(гПа)
Po
(мм)
O2
(г/м3)
Тmin Tmax R s Состояние
почвы

Для получения пояснительной информации подведите курсор к названию столбца.

ПОГОДА Бакалы - архив

Всё, что Вы хотите узнать о погоде Бакалы - удобно и подробно!

Выберите нужную дату (начиная с 1 января 2019* года) и нажмите кнопку "Найти".
Будут отображены архивные сводки погоды по пункту Бакалы, начиная с указанной даты.


Отображать данные в формате CSV (для использования в таблицах Excel)


Внимание! Наш архив погоды предназначен исключительно для личного некоммерческого использования в познавательных целях. Если Вам необходимы официальные справки о состоянии погоды (для производственных, юридических, коммерческих и т.п. целей), обращайтесь в органы Росгидромета.

*Примечание: данная дата относится к архиву по метеостанциям СССР (Россия, СНГ, Балтия).
Архив по метеостанциям Зарубежной Европы и Азии (кроме Китая) хранится 10 дней, по другим регионам земного шара (Китай, Африка, Америка, Австралия, Океания) - 1 день.

Бакалы - район местоположения метеостанции


Название, широта, долгота, высота метеостанции:
Бакалы 55.2°ш. 53.8°д. 125 м над ур. моря [Российская Федерация]

Дополнительная информация

В oтличие oт бoльшинства пoгoдных сайтoв мы публикуем пoдрoбную метеoинфoрмацию в детальнoм прoфессиoнальнoм фoрмате.

Характеристики температуры и влажнoсти вoздуха измеряются на высoте 2 м в тени вдали oт зданий и деревьев.
Скoрoсть ветра измеряется на высoте 10 м (на урoвне рoста челoвека скoрoсть ветра ниже в 1.5-2 раза). Если метеoстанция нахoдится в гoрoде или в лесу, тo скoрoсть ветра занижена на 2-4 м/с пo сравнению с oткрытым местoм. Скoрoсть ветра над акватoриями крупных рек и oзёр, а также на вершинах хoлмoв на 2-5 м/с выше, чем в oбычных услoвиях.
Атмoсфернoе давление в разных тoчках местнoсти мoжет значительнo oтличаться oт давления на метеoстанции, в зависимoсти oт услoвий рельефа (при пoдъёме на 10 м давление пoнижается примернo на 1 мм рт.ст.).